Regional Weather Roundup
Issued by NWS

Home | Current Version | Previous Version | Graphics & Text | Print | Product List | Glossary On
Versions: 1 2 3 4 5 6 7 8 9 10 11 12 13 14 15 16 17 18 19 20 21 22 23 24 25 26 27 28 29 30 31 32 33 34 35 36 37 38 39 40 41 42 43 44 45 46 47 48 49 50
000
ASUS43 KBIS 300402
RWRND

NORTH DAKOTA REGIONAL WEATHER ROUNDUP
NATIONAL WEATHER SERVICE BISMARCK ND
1100 PM CDT WED MAR 29 2017

NOTE: "FAIR" INDICATES FEW OR NO CLOUDS BELOW 12,000 FEET WITH NO
SIGNIFICANT WEATHER AND/OR OBSTRUCTIONS TO VISIBILITY.


NDZ001>003-009>011-017-300500-
NORTHWEST NORTH DAKOTA

CITY           SKY/WX    TMP DP  RH WIND       PRES   REMARKS
WILLISTON      FAIR      45  31  58 SW5       29.83F
MINOT          FAIR      44  42  93 S5        29.84F
MINOT AFB      FOG       38  38  99 S6        29.83F VSB 3/4
$$

NDZ018>021-031>035-040>046-300500-
SOUTHWEST NORTH DAKOTA

CITY           SKY/WX    TMP DP  RH WIND       PRES   REMARKS
BISMARCK       CLOUDY    54  34  46 S20       29.92R
DICKINSON      FAIR      40  29  64 S6        29.85S
GARRISON         N/A     46  38  73 S8        29.85F
HETTINGER ARPT MOCLDY    47  37  68 S13       29.90F
$$

NDZ004>008-012>016-024-026-027-054-300500-
NORTHEAST NORTH DAKOTA

CITY           SKY/WX    TMP DP  RH WIND       PRES   REMARKS
GRAND FORKS    PTCLDY    46  38  73 S20G31    29.97S
GRND FRKS AFB  MOCLDY    47  36  67 S18G30    29.97R
DEVILS LAKE    CLOUDY    49  35  58 S23G30    29.90F
$$

NDZ022-023-025-028>030-036>039-047>053-300500-
SOUTHEAST NORTH DAKOTA

CITY           SKY/WX    TMP DP  RH WIND       PRES   REMARKS
FARGO          CLEAR     45  38  76 S17       30.04F
JAMESTOWN      FAIR      44  35  70 S20       29.97R
$$




USA.gov is the U.S. government's official web portal to all federal, state and local government web resources and services.